Location: Del Oro Observatory
(38.3044°N, 104.8119°W)
Time: 08:53:03
(UTC-06:00)

Daily predictions for brighter satellites

Satellite Brightness Start Highest point End
(mag) Time Altitude Azimuth Time Altitude Azimuth Time Altitude Azimuth
BREEZE-M DEB (TANK) 3.5 19:54:51 10° SW 19:58:31 82° SE 20:11:47 10° ENE
Cosmos 2263 Rocket 3.6 19:56:58 10° NW 20:02:15 41° WSW 20:07:30 10° S
NOSS 3-3 (A) 4.3 19:57:32 10° S 20:03:03 41° ESE 20:09:00 10° NE
NOSS 3-3 (C) 4.3 19:57:40 10° S 20:03:10 41° ESE 20:09:05 10° NE
Cosmos 1892 4.1 20:01:35 10° NNE 20:04:40 22° ENE 20:07:43 10° SE
Cosmos 494 Rocket 4.0 20:01:34 10° NNW 20:06:47 73° ENE 20:12:01 10° SSE
Cosmos 1726 4.3 20:04:14 10° SW 20:07:37 32° WNW 20:11:02 10° NNW
EO 1 Del DPAF 4.0 20:04:44 10° N 20:08:29 59° WNW 20:12:14 10° SSW
Cosmos 2219 Rocket 2.6 20:03:29 10° S 20:08:42 39° ESE 20:13:55 10° NE
Cosmos 2237 Rocket 3.5 20:05:47 10° SE 20:09:31 18° E 20:13:16 10° ENE
Cosmos 1805 Rocket 3.6 20:08:04 10° N 20:12:22 57° E 20:16:37 10° SSE
Cosmos 2154 Rocket 4.2 20:08:55 10° SSE 20:14:57 52° E 20:20:58 10° NNE
YAOGAN 6 3.5 20:13:23 10° SE 20:16:35 31° ENE 20:19:50 10° N
Cosmos 2184 Rocket 4.1 20:12:18 10° S 20:18:29 81° W 20:24:40 10° N
Cosmos 1437 3.4 20:15:59 10° SSW 20:19:07 58° W 20:22:16 10° N
Cosmos 2278 Rocket 3.7 20:15:25 10° N 20:19:32 20° NE 20:23:35 10° E
Resurs 01 Rocket 2.4 20:16:57 10° SE 20:20:55 33° ENE 20:24:56 10° N
Cosmos 2251 Rocket 3.7 20:19:42 10° N 20:25:01 59° ENE 20:30:17 10° SSE
Cosmos 44 Rocket 4.3 20:20:58 10° SW 20:25:35 52° NW 20:30:21 10° NNE
Envisat 3.0 20:22:37 10° SSE 20:27:41 89° ENE 20:32:48 10° NNW
Meteor 2-15 4.4 20:23:36 10° N 20:29:45 70° E 20:35:49 10° SSE
ATLAS CENTAUR R/B 1.5 20:27:00 10° S 20:30:22 38° ESE 20:33:52 10° NE
Cosmos 1340 2.6 20:27:14 10° S 20:31:01 88° ESE 20:34:50 10° N
Cosmos 2341 Rocket 4.2 20:30:41 10° SSE 20:36:49 52° E 20:42:56 10° NNE
Meteor 2-21 4.4 20:31:29 10° S 20:37:36 82° E 20:43:48 10° N
In-Cosmos 22 Rocket 4.4 20:35:07 10° NNW 20:40:34 71° W 20:45:52 10° S
Cosmos 962 Rocket 4.5 20:35:50 10° S 20:41:47 59° E 20:47:50 10° NNE
Timation 1 Rocket 4.3 20:37:58 10° NNW 20:43:58 75° ENE 20:49:27 12° SSE
Cosmos 1825 3.7 20:43:04 10° NNE 20:45:50 19° ENE 20:46:31 18° E
NOSS 0 Rocket 4.0 20:44:05 10° S 20:50:04 56° ESE 20:56:06 10° NNE
USA 186 1.4 20:49:32 17° S 20:51:04 57° W 20:53:18 10° NNW
SJ-6B 4.2 20:47:30 10° S 20:51:19 39° W 20:55:05 10° NNW
SL-24 R/B - RUBIN 2 3.6 20:48:28 10° NW 20:52:49 76° WSW 20:56:09 17° SSE
Cosmos 1666 Rocket 3.7 20:48:25 10° N 20:52:54 82° W 20:57:21 10° S
Cosmos 1939 Rocket 2.8 20:50:35 10° SSE 20:54:26 85° W 20:58:21 10° NNW
BREEZE-M DEB (TANK) 3.4 20:50:37 10° NW 20:54:33 34° NNE 20:55:38 23° ENE
Thor Agena Rocket 4.0 20:49:33 10° N 20:54:46 67° WNW 21:00:00 10° SSW
SJ-11-01 4.2 20:51:57 13° SSE 20:56:00 69° ENE 21:00:39 10° N
Resurs 1-3 3.5 20:52:13 10° SSE 20:56:34 88° E 21:00:59 10° NNW
Cosmos 1933 Rocket 4.1 20:54:49 10° N 20:58:54 37° ENE 21:00:35 27° ESE
SL-16 R/B 3.5 20:59:34 19° E 20:59:34 19° E 21:02:48 10° NE
Cosmos 1869 4.1 21:02:48 29° ESE 21:03:16 30° E 21:06:47 10° NNE
BREEZE-M DEB (TANK) 4.1 21:00:46 10° NW 21:03:19 18° N 21:04:23 14° NE
Sakura Rocket 4.3 21:00:25 10° SW 21:03:46 21° S 21:04:18 20° SSE
Cosmos 220 Rocket 4.0 21:00:18 10° NNW 21:04:37 63° ENE 21:06:39 29° SE
Meteor 2-3 Rocket 3.6 20:59:08 10° N 21:04:45 81° E 21:09:43 14° SSE
Cosmos 1151 Rocket 3.0 21:01:27 14° S 21:05:01 57° E 21:09:13 10° NNE
Sich 1 3.8 21:01:07 10° NNW 21:05:16 51° W 21:09:23 10° SSW
SL-8 Rocket 4.1 20:59:29 10° S 21:05:38 57° E 21:11:47 10° NNE
GEOS 3 Rocket 4.3 21:03:54 10° NE 21:08:32 30° ESE 21:13:04 10° S
ARGOS 3.9 21:07:10 26° ESE 21:09:09 34° ENE 21:13:56 10° N
Spot 2 Rocket 3.4 21:06:34 16° SSE 21:10:39 87° ENE 21:15:47 10° NNW
ATLAS 2AS CENTAUR R/B 2.9 21:10:32 10° NNW 21:18:27 80° ENE 21:22:43 28° SE
CZ-4B DEB 4.4 21:20:15 57° ESE 21:20:41 65° ENE 21:24:09 10° N
Cosmos 1980 3.7 21:19:40 10° SSW 21:25:22 87° WNW 21:31:05 10° NNE
Cosmos 1633 Rocket 4.3 21:21:41 10° NNW 21:25:45 40° W 21:29:49 10° SSW
OAO 2 Rocket 4.0 21:22:11 10° W 21:27:03 41° SSW 21:28:16 35° SSE
Meteor 2-10 Rocket 3.9 21:27:11 33° SSE 21:29:24 52° E 21:35:01 10° NNE
Cosmos 1455 4.0 21:28:40 10° SW 21:32:06 32° WNW 21:35:36 10° NNW
ATLAS 2A CENTAUR R/B 4.3 21:17:28 10° SW 21:33:19 34° S 21:36:37 29° SE
Cosmos 2333 Rocket 3.3 21:28:47 10° SW 21:34:11 45° WNW 21:39:37 10° N
Cosmos 1515 Rocket 4.1 21:30:09 10° SSW 21:34:32 60° W 21:38:59 10° N
Cosmos 2228 Rocket 3.5 21:30:22 10° SSW 21:34:42 60° W 21:39:03 10° N
Helios 1A 4.4 21:35:50 24° NE 21:35:50 24° NE 21:38:38 10° NNE
Cosmos 1408 2.5 21:32:08 10° N 21:35:48 82° W 21:36:09 71° SSW
Cosmos 864 Rocket 4.3 21:33:34 23° S 21:37:34 74° E 21:43:41 10° N
USA 81 4.3 21:37:56 10° N 21:43:03 48° E 21:43:21 47° E
Cosmos 1844 Rocket 4.5 21:38:52 10° NW 21:43:34 27° WSW 21:48:14 10° SSW
SL-8 R/B 4.1 21:42:45 10° WSW 21:47:30 62° NNW 21:50:54 19° NE
NOSS 3-4 (A) 4.4 21:41:56 10° NNW 21:48:40 45° NE 21:51:00 35° E
NOSS 3-4 (C) 4.4 21:42:03 10° NNW 21:48:46 45° NE 21:51:06 35° E
H-2A R/B 2.0 21:48:27 57° ESE 21:48:57 61° ENE 21:53:52 10° N
ERS-1 Rocket 3.0 21:50:13 56° E 21:50:30 57° ENE 21:55:26 10° N
Cosmos 407 Rocket 3.8 21:46:19 10° N 21:51:17 47° ENE 21:51:21 47° ENE
Cosmos 2219 Rocket 4.2 21:47:55 10° WSW 21:52:43 28° WNW 21:57:32 10° N
Cosmos 2237 Rocket 2.8 21:47:34 10° SW 21:53:03 55° WNW 21:58:36 10° NNE
MetOp-A 4.0 21:53:47 55° SSE 21:55:01 90° WSW 22:00:24 10° NNW
Genesis I 3.9 21:51:28 10° NW 21:55:23 48° WSW 21:55:26 48° WSW
Cosmos 1371 Rocket 4.2 21:52:00 11° SSW 21:57:08 72° WNW 22:02:30 10° NNE
Resurs 01 Rocket 3.9 21:54:10 10° SW 21:57:27 20° W 22:00:45 10° NW
USA 267 3.1 21:53:56 10° NE 22:00:24 62° SE 22:06:51 10° SSW
SL-08 RB Rocket 3.6 22:02:53 78° N 22:02:53 78° N 22:07:06 10° N
Cosmos 2278 Rocket 2.5 21:58:27 10° NNW 22:04:01 59° WSW 22:05:28 45° SSW
ATLAS CENTAUR R/B 4.2 22:07:06 10° W 22:09:30 16° NW 22:11:58 10° N
Cosmos 1727 Rocket 4.0 22:08:48 10° N 22:14:59 77° W 22:16:20 56° SSW
Cosmos 1821 Rocket 4.2 22:17:40 52° ENE 22:17:40 52° ENE 22:23:14 10° NNE
Cosmos 2056 Rocket 4.1 22:15:54 27° SW 22:18:46 58° WNW 22:24:07 10° N
Cosmos 1825 4.2 22:18:17 10° NW 22:21:19 23° W 22:21:24 23° W
Cosmos 2098 Rocket 4.5 22:20:03 28° WSW 22:21:35 36° W 22:25:21 10° NNW
Terra 3.3 22:43:59 31° NNE 22:43:59 31° NNE 22:46:39 10° N
SL-16 R/B 2.8 22:41:17 45° WSW 22:42:32 54° WNW 22:48:05 10° NNE
Cosmos 1140 Rocket 4.3 22:43:07 10° NNW 22:46:47 47° N 22:46:47 47° N
CZ-4C R/B 4.1 22:58:25 20° NE 22:58:25 20° NE 23:00:09 10° NE
Cosmos 1943 Rocket 4.1 22:51:58 10° N 22:54:52 19° NE 22:54:52 19° NE
SPOT 5 4.3 22:58:33 33° NW 22:58:33 33° NW 23:01:17 10° NNW
Lacrosse 5 4.0 22:57:47 10° NNW 23:01:09 20° NNE 23:01:09 20° NNE
Cosmos 2344 3.8 23:08:24 35° SW 23:11:54 68° NW 23:20:09 10° NNE
Cosmos 2369 Rocket 3.6 23:18:38 10° NNW 23:22:03 33° NNE 23:22:03 33° NNE
H-2A R/B 4.4 23:29:05 14° W 23:29:05 14° W 23:31:16 10° WNW
BREEZE-M DEB (TANK) 4.2 23:10:55 10° WNW 23:31:53 83° N 23:31:53 83° N
CZ-2C R/B 4.3 23:37:15 10° N 23:39:42 28° N 23:39:42 28° N
USA 267 4.3 23:37:11 10° NE 23:43:11 40° NNW 23:49:11 10° W
